Biloxi, MS

2:40 PM CST on February 20, 2017 (GMT -0600)
Keesler Air Force Base

Weather History for KBIX - May, 2014

Change the Weather History Date:

Friday, May 2, 2014

  Actual Average Record
Temperature  
Mean Temperature 65 °F -  
Max Temperature 74 °F 79 °F 86 °F (1964)
Min Temperature 57 °F 65 °F 51 °F (2005)
Growing Degree Days 15 (Base 50)    
Moisture  
Dew Point 49 °F    
Average Humidity 54    
Maximum Humidity 78    
Minimum Humidity 35    
Precipitation  
Precipitation 0.00 in - - ()
Sea Level Pressure  
Sea Level Pressure 30.00 in    
Wind  
Wind Speed 4 mph (NNE)    
Max Wind Speed 10 mph    
Max Gust Speed -    
Visibility 10 miles    
Events      
Averages and records for this station are not official NWS values.
T = Trace of Precipitation, MM = Missing Value Source: NWS Daily Summary

Daily Weather History Graph

Daily Weather History Graph

Search for Another Location

Airport or City:

Trip Planner

Search our weather history database for the weather conditions in past years. The results will help you decide how hot, cold, wet, or windy it might be!

Date:

Astronomy

May. 02, 2014 Rise Set
Actual Time 6:11 AM CDT 7:34 PM CDT
Civil Twilight 5:45 AM CDT 7:59 PM CDT
Nautical Twilight 5:15 AM CDT 8:30 PM CDT
Astronomical Twilight 4:43 AM CDT 9:02 PM CDT
Moon 8:52 AM CDT (5/2) 10:52 PM CDT (5/2)
Length of Visible Light 14h 14m
Length of Day
13h 23m
Waxing Crescent, 12% of the Moon is Illuminated
May 2
Waxing Crescent
May 6
First Quarter
May 14
Full
May 21
Last Quarter
May 28
New

Hourly Weather History & Observations

Time (CDT) Temp. Dew Point Humidity Pressure Visibility Wind Dir Wind Speed Gust Speed Precip Events Conditions
12:58 AM 63.9 °F 52.2 °F 66% 30.04 in 10.0 mi Calm Calm - N/A   Partly Cloudy
1:58 AM 63.3 °F 51.1 °F 64% 30.02 in 10.0 mi NNE 4.6 mph - N/A   Overcast
2:58 AM 62.8 °F 51.4 °F 66% 30.01 in 10.0 mi Variable 1.2 mph - N/A   Scattered Clouds
3:58 AM 61.5 °F 50.9 °F 68% 30.00 in 10.0 mi NNE 4.6 mph - N/A   Mostly Cloudy
4:58 AM 60.1 °F 51.1 °F 72% 30.00 in 10.0 mi Variable 2.3 mph - N/A   Clear
5:58 AM 58.6 °F 50.4 °F 74% 30.00 in 10.0 mi NNE 4.6 mph - N/A   Clear
6:58 AM 57.9 °F 51.1 °F 78% 30.00 in 10.0 mi NE 8.1 mph - N/A   Clear
7:58 AM 62.6 °F 49.1 °F 61% 30.02 in 10.0 mi ENE 8.1 mph - N/A   Scattered Clouds
8:58 AM 66.9 °F 48.2 °F 51% 30.02 in 10.0 mi NE 8.1 mph - N/A   Mostly Cloudy
9:58 AM 69.6 °F 45.9 °F 43% 30.03 in 10.0 mi NE 8.1 mph - N/A   Clear
10:58 AM 71.6 °F 44.6 °F 38% 30.02 in 10.0 mi NE 8.1 mph - N/A   Scattered Clouds
11:58 AM 71.6 °F 42.8 °F 35% 30.03 in 10.0 mi NNW 4.6 mph - N/A   Scattered Clouds
12:58 PM 73.4 °F 44.6 °F 36% 30.00 in 10.0 mi Variable 3.5 mph - N/A   Clear
1:58 PM 73.4 °F 48.2 °F 41% 29.99 in 10.0 mi SW 9.2 mph - N/A   Clear
2:58 PM 73.6 °F 48.9 °F 42% 29.96 in 10.0 mi SW 10.4 mph - N/A   Mostly Cloudy
3:58 PM 71.4 °F 48.4 °F 44% 29.96 in 10.0 mi SW 10.4 mph - N/A   Partly Cloudy
4:58 PM 71.1 °F 51.1 °F 49% 29.97 in 10.0 mi Variable 6.9 mph - N/A   Scattered Clouds
5:58 PM 72.0 °F 47.8 °F 42% 29.94 in 10.0 mi NNE 3.5 mph - N/A   Mostly Cloudy
6:58 PM 70.9 °F 46.8 °F 42% 29.96 in 10.0 mi Variable 6.9 mph - N/A   Mostly Cloudy
7:58 PM 68.7 °F 48.7 °F 49% 29.97 in 10.0 mi Variable 2.3 mph - N/A   Overcast
8:58 PM 66.2 °F 49.3 °F 54% 29.98 in 10.0 mi Calm Calm - N/A   Mostly Cloudy
9:58 PM 66.6 °F 50.4 °F 56% 30.01 in 10.0 mi Calm Calm - N/A   Overcast
10:58 PM 64.0 °F 52.5 °F 66% 30.01 in 10.0 mi NNE 1.2 mph - N/A   Mostly Cloudy
11:58 PM 62.8 °F 52.7 °F 70% 30.01 in 10.0 mi Calm Calm - N/A   Mostly Cloudy